www.pogodaiklimat.ru

Погода и климат >> Архив погоды >> Великобритания >> Stornoway


АРХИВ ПОГОДЫ в Stornoway

Время (UTC), дата Ветер
(напр.,м/с)
 
Видим.   Явления Облачность Т
(С)
Тd
(С)
f
(%)
Тe
(С)
Тes
(С)
Комфортность P
(гПа)
Po
(гПа)
Тmin
(С)
Tmax
(С)
R
(мм)
R24
(мм)
S
(см)
07 10.12 З 2 50 км н/о +2.0 +0.8 92 -1 -1 тепло 1024.0 1022.1
08 10.12 З 1 50 км н/о +2.0 -0.1 86 +2 +2 тепло 1024.1 1022.2
09 10.12 штиль 0 40 км н/о +1.3 -0.3 89 0 0 по сезону 1024.1 1022.2
10 10.12 З 2 40 км н/о +0.4 -0.7 92 -3 -3 по сезону 1024.7 1022.8
11 10.12 З 2 35 км н/о +1.7 +0.4 91 -2 -2 по сезону 1025.1 1023.2
12 10.12 З 1 45 км н/о +2.6 +0.4 85 +1 +1 по сезону 1025.4 1023.5
13 10.12 В 1 6000 м дым н/о +3.6 +1.4 86 +2 +2 тепло 1025.2 1023.3
14 10.12 Ю 3 50 км н/о +5.1 +2.2 82 +2 +2 по сезону 1024.6 1022.8
15 10.12 ЮВ 7 50 км н/о +6.2 +3.6 83 +1 +1 по сезону 1023.8 1022.0
16 10.12 Ю 6 50 км н/о +6.2 +2.6 78 +2 +2 тепло 1023.6 1021.7
17 10.12 Ю 6 27 км слаб. ливневой дождь н/о +6.0 +2.6 79 +1 +1 по сезону 1023.2 1021.4
18 10.12 ЮВ 7 50 км в посл. час дождь н/о +6.4 +3.0 79 +2 +2 по сезону 1022.8 1020.9 +6.4 0.0
19 10.12 ЮВ 7 50 км н/о +6.9 +3.5 79 +2 +2 тепло 1022.3 1020.4
20 10.12 Ю 8 50 км н/о +7.4 +4.3 81 +3 +3 тепло 1021.7 1019.9
21 10.12 Ю 8 45 км н/о +7.8 +4.7 81 +3 +3 по сезону 1021.4 1019.6
22 10.12 Ю 8 45 км н/о +8.1 +4.7 79 +3 +3 тепло 1021.1 1019.2
23 10.12 Ю 8 45 км н/о +8.1 +4.7 79 +3 +3 тепло 1020.5 1018.6
00 11.12 Ю 9 45 км н/о +8.3 +5.5 83 +3 +3 по сезону 1019.9 1018.0
01 11.12 Ю 9
{13}
27 км н/о +8.3 +5.9 85 +3 +3 тепло 1019.2 1017.3
02 11.12 Ю 10
{14}
25 км н/о +8.5 +6.2 85 +3 +3 тепло 1018.7 1016.9
03 11.12 Ю 8 20 км н/о +8.8 +6.6 86 +4 +4 по сезону 1018.6 1016.7
04 11.12 Ю 9 24 км н/о +9.1 +6.7 85 +5 +5 тепло 1017.9 1016.0
05 11.12 Ю 9
{13}
21 км н/о +9.5 +7.1 85 +5 +5 тепло 1017.2 1015.4
06 11.12 Ю 7 24 км н/о +9.5 +7.5 87 +5 +5 по сезону 1017.1 1015.2 +6.4
07 11.12 Ю 8 26 км н/о +9.7 +7.0 83 +6 +6 тепло 1016.7 1014.8
08 11.12 Ю 7 30 км н/о +9.2 +6.8 85 +5 +5 тепло 1016.3 1014.5
09 11.12 Ю 5 40 км н/о +8.9 +6.9 87 +6 +6 тепло 1016.0 1014.1
10 11.12 ЮВ 5 35 км н/о +9.0 +7.0 87 +5 +5 тепло 1016.1 1014.3
11 11.12 ЮВ 4 24 км н/о +9.9 +7.8 87 +7 +7 тепло 1015.8 1014.0
12 11.12 Ю 6 40 км н/о +10.4 +7.6 83 +7 +7 тепло 1015.4 1013.6
13 11.12 Ю 6 30 км н/о +10.4 +7.7 83 +7 +7 тепло 1015.1 1013.3
14 11.12 Ю 6 30 км н/о +10.5 +7.8 83 +7 +7 тепло 1015.0 1013.2
15 11.12 Ю 6 27 км н/о +10.3 +7.8 84 +7 +7 тепло 1014.4 1012.6
16 11.12 Ю 5 25 км н/о +10.3 +8.2 87 +7 +7 тепло 1014.0 1012.2
17 11.12 Ю 6 29 км н/о +10.6 +7.7 82 +7 +7 тепло 1013.9 1012.1
18 11.12 Ю 8 18 км слаб. морось с дождем н/о +10.7 +7.9 83 +7 +7 тепло 1013.3 1011.5 +11.0 0.0
19 11.12 Ю 7 15 км слаб. дождь н/о +10.1 +8.1 87 +6 +6 тепло 1014.0 1012.1
20 11.12 Ю 8 40 км слаб. ливневой дождь н/о +10.2 +8.1 87 +6 +6 тепло 1014.1 1012.3
21 11.12 ЮЗ 12
{16}
30 км слаб. морось с дождем н/о +9.8 +7.7 87 +5 +5 по сезону 1014.0 1012.2
22 11.12 Ю 6
{15}
45 км в посл. час дождь н/о +9.8 +7.8 87 +6 +6 тепло 1014.1 1012.3
23 11.12 Ю 8 35 км н/о +10.1 +7.6 84 +6 +6 тепло 1014.1 1012.2
00 12.12 Ю 7 30 км н/о +10.2 +7.8 85 +6 +6 тепло 1013.9 1012.1 1
01 12.12 Ю 6 40 км н/о +10.3 +7.7 84 +7 +7 тепло 1014.0 1012.1
02 12.12 Ю 7 30 км н/о +10.3 +7.2 81 +7 +7 тепло 1014.0 1012.2
03 12.12 Ю 9
{13}
40 км н/о +10.3 +7.1 81 +6 +6 тепло 1013.8 1012.0
04 12.12 Ю 9
{13}
24 км н/о +10.3 +7.4 82 +6 +6 тепло 1013.8 1011.9
05 12.12 Ю 9
{14}
25 км н/о +10.3 +7.3 82 +6 +6 тепло 1013.5 1011.7
06 12.12 Ю 10 19 км н/о +9.9 +7.4 84 +5 +5 по сезону 1013.4 1011.5 +9.6 1
07 12.12 Ю 10
{15}
21 км н/о +10.0 +7.3 83 +6 +6 тепло 1013.7 1011.8
08 12.12 Ю 9
{13}
19 км н/о +10.1 +7.5 84 +6 +6 тепло 1013.6 1011.8
09 12.12 Ю 9
{13}
25 км н/о +10.2 +7.3 82 +6 +6 тепло 1013.9 1012.1
10 12.12 Ю 9
{13}
26 км н/о +10.1 +7.4 83 +6 +6 тепло 1013.8 1012.0
11 12.12 Ю 8
{13}
40 км н/о +10.2 +7.2 82 +6 +6 тепло 1014.1 1012.3
12 12.12 ЮВ 6 30 км н/о +9.8 +7.3 84 +6 +6 тепло 1013.6 1011.8
13 12.12 ЮВ 7 10 км ливневой дождь н/о +9.7 +7.5 86 +6 +6 тепло 1013.3 1011.5
14 12.12 Ю 6 9000 м слаб. ливневой дождь н/о +9.3 +7.5 89 +5 +5 тепло 1012.8 1011.0
15 12.12 ЮВ 8 30 км слаб. морось с дождем н/о +9.4 +6.8 84 +5 +5 по сезону 1012.4 1010.6
16 12.12 ЮВ 7 30 км в посл. час дождь н/о +9.7 +6.2 79 +6 +6 тепло 1012.1 1010.3
17 12.12 ЮВ 9 30 км н/о +9.6 +6.3 80 +5 +5 тепло 1012.2 1010.4
18 12.12 ЮВ 9 26 км н/о +9.4 +5.6 77 +5 +5 по сезону 1011.7 1009.9 +10.3 0.8
19 12.12 ЮВ 9
{13}
26 км н/о +8.9 +5.0 77 +4 +4 тепло 1011.4 1009.6
20 12.12 ЮВ 10
{14}
27 км н/о +9.1 +5.1 76 +4 +4 тепло 1011.5 1009.7
21 12.12 ЮВ 9
{14}
28 км н/о +9.1 +4.6 73 +5 +5 по сезону 1011.0 1009.2
22 12.12 ЮВ 8
{13}
22 км н/о +8.3 +4.7 78 +4 +4 тепло 1010.6 1008.8
23 12.12 ЮВ 10
{15}
24 км н/о +8.7 +4.4 74 +4 +4 тепло 1011.0 1009.1
00 13.12 ЮВ 9
{14}
30 км н/о +8.9 +3.6 69 +4 +4 по сезону 1010.8 1009.0
01 13.12 ЮВ 9
{13}
40 км н/о +8.3 +3.3 71 +4 +4 тепло 1010.5 1008.6
02 13.12 ЮВ 9
{13}
35 км н/о +7.9 +2.8 70 +3 +3 тепло 1010.2 1008.4
03 13.12 ЮВ 9
{13}
40 км н/о +7.3 +0.8 63 +2 +2 по сезону 1010.0 1008.2
04 13.12 ЮВ 10
{15}
40 км н/о +6.7 -0.5 60 +1 +1 тепло 1010.3 1008.5
05 13.12 ЮВ 11
{14}
50 км н/о +6.9 -0.8 58 +1 +1 тепло 1010.1 1008.3
06 13.12 ЮВ 10 45 км н/о +6.9 +0.1 62 +2 +2 по сезону 1010.1 1008.2 +6.3
07 13.12 ЮВ 9
{14}
35 км н/о +7.2 +0.2 61 +2 +2 тепло 1010.6 1008.7
08 13.12 Ю 9
{13}
50 км н/о +7.4 -2.2 51 +3 +3 тепло 1010.9 1009.0
09 13.12 ЮВ 10
{14}
45 км н/о +7.1 -0.7 58 +2 +2 по сезону 1011.0 1009.2
10 13.12 ЮВ 9
{14}
35 км н/о +7.2 -0.6 58 +2 +2 тепло 1011.9 1010.0
11 13.12 ЮВ 9
{13}
45 км н/о +7.1 -1.2 56 +2 +2 тепло 1012.1 1010.2
12 13.12 ЮВ 11
{14}
30 км н/о +6.9 0.0 61 +1 +1 по сезону 1012.0 1010.1
13 13.12 ЮВ 9
{14}
50 км н/о +7.1 -1.0 56 +2 +2 тепло 1012.1 1010.2
14 13.12 ЮВ 9
{13}
45 км н/о +7.3 -0.9 56 +2 +2 тепло 1012.0 1010.1
15 13.12 Ю 9
{13}
45 км н/о +7.4 -2.2 51 +3 +3 по сезону 1012.2 1010.3
16 13.12 Ю 10
{14}
50 км н/о +7.6 -2.0 51 +3 +3 тепло 1012.6 1010.8
17 13.12 Ю 9
{15}
50 км н/о +7.6 -0.6 56 +3 +3 тепло 1013.1 1011.2
18 13.12 Ю 11
{15}
45 км н/о +7.5 -0.8 56 +2 +2 по сезону 1013.1 1011.3 +7.6
19 13.12 Ю 12
{16}
40 км н/о +7.4 -1.6 53 +2 +2 тепло 1013.7 1011.9
20 13.12 Ю 11
{16}
30 км н/о +7.7 -0.2 57 +2 +2 тепло 1014.7 1012.8
21 13.12 Ю 13
{17}
25 км слаб. ливневой дождь н/о +7.6 +0.1 59 +2 +2 по сезону 1015.1 1013.2
22 13.12 Ю 13
{17}
40 км в посл. час дождь н/о +7.5 -0.4 57 +2 +2 тепло 1015.5 1013.6
23 13.12 Ю 12-17
{17}
29 км н/о +7.5 +0.9 63 +2 +2 тепло 1015.3 1013.5
00 14.12 Ю 12
{17}
35 км н/о +7.4 +1.1 64 +2 +2 по сезону 1015.2 1013.4 0.0
01 14.12 Ю 12 20 км слаб. морось с дождем н/о +7.0 +1.4 68 +1 +1 тепло 1015.1 1013.2
02 14.12 Ю 12
{19}
26 км в посл. час дождь н/о +7.5 +1.1 64 +2 +2 тепло 1015.6 1013.8
03 14.12 Ю 11
{17}
29 км н/о +7.2 +1.3 66 +2 +2 по сезону 1015.7 1013.8
04 14.12 Ю 12
{17}
21 км н/о +7.0 +1.9 70 +1 +1 тепло 1015.6 1013.7
05 14.12 Ю 12
{18}
20 км н/о +6.7 +0.8 66 +1 +1 тепло 1015.6 1013.7
06 14.12 Ю 11 26 км н/о +6.8 +1.2 67 +1 +1 по сезону 1015.1 1013.2 +6.5 0.0
07 14.12 Ю 9
{16}
29 км н/о +6.8 +0.4 64 +2 +2 тепло 1014.9 1013.0
08 14.12 Ю 10
{14}
35 км н/о +6.7 -0.2 61 +1 +1 по сезону 1014.9 1013.1
09 14.12 Ю 12-17
{17}
30 км н/о +6.5 -0.7 60 +1 +1 по сезону 1014.7 1012.9
10 14.12 Ю 12
{17}
40 км н/о +6.3 -0.8 60 0 0 тепло 1014.9 1013.0
11 14.12 Ю 11-16
{17}
35 км н/о +6.2 -0.9 60 0 0 по сезону 1014.7 1012.8
12 14.12 Ю 12
{18}
35 км н/о +6.0 -1.1 60 -0 -0 по сезону 1014.3 1012.5
13 14.12 Ю 12
{18}
45 км н/о +6.1 -1.5 58 0 0 тепло 1014.2 1012.3
14 14.12 Ю 10-15
{16}
30 км н/о +6.0 -1.2 60 0 0 по сезону 1013.0 1011.1
15 14.12 Ю 13-19
{19}
30 км н/о +6.3 -1.5 57 0 0 по сезону 1012.4 1010.5
16 14.12 Ю 12
{17}
40 км н/о +6.2 -1.6 57 0 0 тепло 1011.7 1009.8
17 14.12 Ю 12
{19}
30 км н/о +6.4 -0.7 60 +1 +1 по сезону 1011.7 1009.8
18 14.12 Ю 11
{18}
30 км н/о +6.7 -1.2 57 +1 +1 по сезону 1010.2 1008.4 +6.9
19 14.12 Ю 11
{16}
30 км н/о +6.6 -1.3 57 +1 +1 тепло 1010.3 1008.4
20 14.12 Ю 13
{19}
26 км н/о +6.7 -0.1 62 +1 +1 по сезону 1009.6 1007.7
21 14.12 Ю 12-17
{19}
22 км н/о +7.0 +1.3 67 +1 +1 по сезону 1009.6 1007.7
22 14.12 Ю 13-20
{20}
14 км н/о +6.6 +1.6 70 0 0 тепло 1009.0 1007.2
23 14.12 Ю 12
{17}
24 км в посл. час дождь н/о +6.8 +1.0 66 +1 +1 тепло 1008.8 1006.9
00 15.12 Ю 12
{17}
30 км н/о +6.9 +1.1 67 +1 +1 по сезону 1007.9 1006.1 0.0
01 15.12 Ю 12-18
{18}
29 км н/о +7.2 +1.3 66 +2 +2 тепло 1006.9 1005.0
02 15.12 Ю 12
{17}
26 км н/о +7.4 +2.1 69 +2 +2 тепло 1005.6 1003.7
03 15.12 Ю 13-18
{18}
24 км в посл. час дождь н/о +7.5 +2.3 70 +2 +2 по сезону 1004.6 1002.8
04 15.12 Ю 12-17
{19}
27 км в посл. час дождь н/о +7.3 +3.3 76 +1 +1 тепло 1004.4 1002.5
05 15.12 Ю 12
{19}
20 км в посл. час дождь н/о +7.3 +3.4 76 +1 +1 тепло 1004.1 1002.2
06 15.12 Ю 12 30 км в посл. час дождь н/о +6.5 +3.8 83 0 0 по сезону 1003.1 1001.3 +6.2 0.4
07 15.12 Ю 10
{16}
23 км н/о +7.4 +3.8 78 +2 +2 тепло 1002.6 1000.8
08 15.12 Ю 10
{15}
12 км дым н/о +6.9 +4.3 83 +1 +1 по сезону 1003.2 1001.3
09 15.12 Ю 9-14
{15}
17 км в посл. час дождь н/о +6.7 +4.7 87 +1 +1 по сезону 1003.2 1001.4
10 15.12 Ю 8 10 км слаб. ливневой дождь н/о +6.3 +4.8 90 +1 +1 тепло 1002.5 1000.7
11 15.12 ЮВ 4 10 км слаб. ливневой дождь н/о +6.0 +4.6 91 +2 +2 тепло 1000.7 998.8
12 15.12 ЮВ 10
{13}
21 км слаб. дождь н/о +5.5 +2.5 81 -1 -1 прохладно 997.9 996.1 1
13 15.12 ЮВ 11
{15}
12 км слаб. дождь н/о +5.2 +1.7 78 -1 -1 тепло 996.6 994.7
14 15.12 ЮВ 10
{14}
9000 м слаб. дождь н/о +4.5 +2.2 85 -2 -2 по сезону 994.6 992.8
15 15.12 В 9
{14}
11 км слаб. дождь н/о +4.2 +2.4 88 -2 -2 прохладно 992.7 990.9
16 15.12 ЮВ 9 8000 м дождь н/о +5.8 +3.6 86 -0 -0 тепло 990.7 988.9
17 15.12 ЮВ 9
{14}
8000 м слаб. дождь н/о +5.8 +3.7 86 0 0 по сезону 989.0 987.2
18 15.12 ЮВ 8
{13}
11 км слаб. дождь н/о +5.3 +3.6 89 -1 -1 по сезону 988.1 986.3 +7.7 11
19 15.12 ЮВ 7 4100 м дождь н/о +5.1 +4.2 94 -1 -1 тепло 987.5 985.7
20 15.12 ЮВ 5 10 км дождь н/о +5.1 +3.6 90 0 0 по сезону 986.6 984.7
21 15.12 ЮВ 6 11 км дождь н/о +5.2 +3.5 89 0 0 по сезону 986.1 984.2
22 15.12 ЮВ 6 10 км дождь н/о +5.3 +3.6 89 0 0 тепло 985.8 984.0
23 15.12 ЮВ 6 15 км дождь н/о +5.0 +3.3 89 -0 -0 по сезону 985.5 983.6
00 16.12 ЮВ 3 8000 м дождь н/о +4.0 +2.7 91 0 0 по сезону 985.0 983.2 12
01 16.12 ЮВ 4 11 км дождь н/о +3.8 +2.7 93 -1 -1 тепло 985.4 983.6
02 16.12 В 2 24 км слаб. дождь н/о +3.9 +2.9 93 +1 +1 тепло 985.5 983.7
03 16.12 ЮВ 2 7000 м дождь н/о +3.9 +3.0 94 +1 +1 по сезону 985.5 983.7
04 16.12 З 3 11 км в посл. час дождь н/о +3.7 +3.0 95 0 0 тепло 985.5 983.6
05 16.12 З 3 5000 м дождь н/о +3.3 +2.7 96 -1 -1 по сезону 986.2 984.4
06 16.12 З 4 16 км слаб. дождь н/о +2.5 +1.9 96 -3 -3 прохладно 987.2 985.4 +2.5 19
07 16.12 З 6 50 км в посл. час дождь н/о +2.8 +2.1 95 -3 -3 тепло 988.0 986.2
08 16.12 З 7 14 км слаб. ливневой дождь н/о +4.6 +4.0 96 -1 -1 по сезону 989.2 987.4
09 16.12 З 4 50 км в посл. час дождь н/о +5.0 +3.8 92 +1 +1 по сезону 990.1 988.3
10 16.12 ЮЗ 3 35 км н/о +3.8 +2.8 93 -0 -0 тепло 991.4 989.6
11 16.12 ЮЗ 5 50 км н/о +4.6 +3.4 92 -0 -0 по сезону 992.3 990.5
12 16.12 ЮЗ 5 40 км н/о +6.7 +4.6 86 +3 +3 по сезону 992.9 991.1 0.6
13 16.12 Ю 5 50 км н/о +7.3 +4.4 82 +4 +4 тепло 993.3 991.4
14 16.12 Ю 6 28 км н/о +7.1 +4.7 85 +3 +3 тепло 993.3 991.5
15 16.12 Ю 6 45 км в посл. час дождь н/о +6.6 +4.3 85 +2 +2 по сезону 994.0 992.2
16 16.12 Ю 12-17
{17}
10 км слаб. ливневой дождь н/о +6.9 +5.1 88 +1 +1 тепло 994.7 992.9
17 16.12 Ю 9
{14}
28 км в посл. час дождь н/о +6.9 +5.0 88 +1 +1 тепло 995.5 993.7
18 16.12 Ю 10 28 км в посл. час дождь н/о +6.9 +4.6 85 +1 +1 по сезону 996.2 994.4 +7.6 2
19 16.12 Ю 7
{14}
10 км ливневой дождь н/о +7.3 +5.8 90 +2 +2 тепло 997.1 995.2
20 16.12 Ю 9
{15}
7000 м дождь н/о +6.2 +4.8 91 0 0 по сезону 997.8 996.0
21 16.12 Ю 10-15
{15}
26 км в посл. час дождь н/о +6.9 +4.8 86 +1 +1 по сезону 998.3 996.5
22 16.12 Ю 12
{16}
11 км слаб. ливневой дождь н/о +6.8 +4.7 86 +1 +1 тепло 998.7 996.9
23 16.12 Ю 9
{14}
7000 м ливневой дождь н/о +7.0 +5.1 88 +1 +1 тепло 999.2 997.4
00 17.12 Ю 9
{15}
23 км в посл. час дождь н/о +7.3 +5.8 90 +2 +2 по сезону 999.7 997.8 7
01 17.12 ЮЗ 6
{13}
12 км ливневой дождь н/о +6.6 +5.5 93 +2 +2 тепло 1000.1 998.3
02 17.12 ЮЗ 6 3700 м в посл. час дождь н/о +6.8 +5.6 92 +2 +2 тепло 1001.2 999.3
03 17.12 Ю 8 24 км в посл. час дождь н/о +7.6 +6.0 90 +3 +3 по сезону 1001.6 999.8
04 17.12 Ю 9
{13}
9000 м слаб. ливневой дождь н/о +7.7 +5.9 88 +2 +2 тепло 1001.9 1000.0
05 17.12 Ю 9
{13}
19 км в посл. час дождь н/о +7.3 +5.7 90 +2 +2 тепло 1002.2 1000.4
06 17.12 Ю 7 35 км в посл. час дождь н/о +7.0 +5.1 88 +2 +2 по сезону 1002.8 1001.0 +5.7 8

 

Местоположение метеостанции Stornoway (Великобритания): широта 58.22 долгота -6.32 высота над уровнем моря 15 м.

В архиве по умолчанию представлена погода в Stornoway за последнюю неделю. Архивные данные за месяц целиком и за предыдущие месяцы, начиная с января 2011 года, Вы можете получить, выбрав интересующий диапазон дат из раскрывающегося списка и нажав кнопку "Ввод!".


*Определитесь, кто Вы:
робот инопланетянин человек

Внимание! Время в таблицах - всемирное. Для получения местного времени необходимо прибавить поправку, которая в Stornoway равна 0 ч.

Смотрите также архив погоды в соседних городах и на ближайших метеорологических станциях:

Погода в Aultbea (Великобритания) (56 км)
Погода в Bealach Na Ba (Великобритания) (97 км)
Погода в Loch Glascarnoch (Великобритания) (102 км)
Погода в Altnaharra (Великобритания) (111 км)
Погода в Skye (Великобритания) (112 км)
Погода в South Uist Range (Великобритания) (117 км)
Погода в Tain Range (Великобритания) (145 км)
Погода в Sule Skerry (Великобритания) (147 км)
Погода в Kinloss (Великобритания) (174 км)
Погода в Aonach Moor (Великобритания) (175 км)

Пояснения к столбцам:

Ветер - указаны скорость ветра в м/с - средняя за 10 мин, порывы в срок и между сроками (в фигурных скобках) и направление, откуда дует ветер: С - северный, СВ - северо-восточный, В - восточный, ЮВ - юго-восточный, Ю - южный, ЮЗ - юго-западный, З - западный, СЗ - северо-западный.
Видимость - горизонтальная дальность видимости в метрах или километрах. При видимости от 1 до 10 км при отсутствии осадков обычно наблюдается дымка, при ухудшении видимости до 1 км и менее - туман. В сухую погоду видимость может ухудшаться дымом, пылью или мглою.
Явления - указаны атмосферные явления, наблюдавшиеся в срок или в последний час перед сроком; фигурными скобками обозначены явления, наблюдавшиеся между сроками (за 1-3 часа до срока); квадратными скобками обозначены град или гололедные отложения с указанием их диаметра в мм.
Облачность - указаны через наклонную черту общая и нижняя облачность в баллах и высота нижней границы облаков в метрах; квадратными скобками обозначены формы облаков: Ci - перистые, Cs - перисто-слоистые, Cc - перисто-кучевые, Ac - высококучевые, As - высокослоистые, Sc - слоисто-кучевые, Ns - слоисто-дождевые, Cu - кучевые, Cb - кучево-дождевые. Подробнее классификацию облаков см. в Атласе облаков (PDF).
T - Температура воздуха - температура, измеренная на высоте 2 м над землей.
Td - Температура точки росы - температура, при понижении до которой содержащийся в воздухе водяной пар достигнет насыщения.
f - Относительная влажность воздуха - влажноcть воздуха, измеренная на высоте 2 м над землей.
Te - Эффективная температура - температура, которую ощущает одетый по сезону человек в тени. Характеристика душности погоды. При расчете учитывается влияние влажности воздуха и скорости ветра на теплоощущения человека.
Tes - Эффективная температура на солнце - температура, которую ощущает человек, с поправкой на солнечный нагрев. Характеристика знойности погоды. Зависит от высоты солнца над горизонтом, облачности и скорости ветра. Ночью, в пасмурную погоду, а также при ветре 12 м/с и более поправка равна нулю.
P - Атмосферное давление - приведенное к уровню моря атмосферное давление.
Po - Атмосферное давление - измеренное на уровне метеостанции атмосферное давление.
Tmin - Минимальная температура - минимум температуры воздуха на высоте 2 м над землей.
Tmax - Максимальная температура - максимум температуры воздуха на высоте 2 м над землей.
R - Количество осадков - Количество выпавших осадков за период времени, мм. При наведении курсора мыши на число - период времени, за который выпало указанное количество осадков.
R24 - Количество осадков - Количество выпавших осадков за 24 часа, мм.
S - Снежный покров - Высота снежного покрова, см. При наведении курсора мыши на число - состояние снежного покрова и степень покрытия местности в баллах.